Weather History for KICL - May, 2013

Change the Weather History Date:

Thursday, May 2, 2013

  Actual Average Record
Temperature  
Mean Temperature 34 °F -  
Max Temperature 39 °F 67 °F 80 °F (2012)
Min Temperature 30 °F 46 °F -99 °F (2002)
Degree Days  
Heating Degree Days 30    
Moisture  
Dew Point 31 °F    
Average Humidity 87    
Maximum Humidity 100    
Minimum Humidity 70    
Precipitation  
Precipitation 1.43 in - - ()
Sea Level Pressure  
Sea Level Pressure 30.40 in    
Wind  
Wind Speed 19 mph (North)    
Max Wind Speed 26 mph    
Max Gust Speed 36 mph    
Visibility 7 miles    
Events Rain , Snow    
Averages and records for this station are not official NWS values.
T = Trace of Precipitation, MM = Missing Value Source: NWS Daily Summary

Daily Weather History Graph

Daily Weather History Graph

Search for Another Location

Airport or City:

Trip Planner

Search our weather history database for the weather conditions in past years. The results will help you decide how hot, cold, wet, or windy it might be!

Date:

Astronomy

May. 02, 2013 Rise Set
Actual Time 6:17 AM CDT 8:17 PM CDT
Civil Twilight 5:47 AM CDT 8:47 PM CDT
Nautical Twilight 5:10 AM CDT 9:24 PM CDT
Astronomical Twilight 4:31 AM CDT 10:03 PM CDT
Moon 2:07 AM CDT (5/2) 1:05 PM CDT (5/2)
Length of Visible Light 15h 00m
Length of Day
14h 00m
Waning Gibbous, 47% of the Moon is Illuminated
May 2
Waning Gibbous
May 9
New
May 17
First Quarter
May 24
Full
May 31
Last Quarter

Hourly Weather History & Observations

Time (CDT) Temp. Windchill Dew Point Humidity Pressure Visibility Wind Dir Wind Speed Gust Speed Precip Events Conditions
12:15 AM 35.6 °F 24.2 °F 35.6 °F 100% 30.30 in 7.0 mi North 21.9 mph 26.5 mph 0.06 in Rain Light Rain
12:35 AM 35.6 °F 23.7 °F 35.6 °F 100% 30.30 in 10.0 mi North 24.2 mph 29.9 mph 0.06 in Rain Light Rain
12:55 AM 33.8 °F 20.8 °F 33.8 °F 100% 30.30 in 2.5 mi North 26.5 mph 32.2 mph 0.14 in Rain Rain
1:15 AM 33.8 °F 22.8 °F 33.8 °F 100% 30.36 in 2.0 mi North 18.4 mph 27.6 mph 0.11 in Rain Rain
1:35 AM 33.8 °F 21.6 °F 33.8 °F 100% 30.30 in 2.0 mi North 23.0 mph 31.1 mph 0.20 in Snow Light Snow
1:55 AM 35.6 °F 23.2 °F 35.6 °F 100% 30.31 in 4.0 mi North 26.5 mph 33.4 mph 0.27 in Snow Light Snow
2:15 AM 35.6 °F 24.8 °F 35.6 °F 100% 30.33 in 3.0 mi North 19.6 mph 25.3 mph 0.08 in Snow Light Snow
2:35 AM 35.6 °F 25.2 °F 35.6 °F 100% 30.32 in 3.0 mi North 18.4 mph 27.6 mph 0.16 in Snow Light Snow
2:55 AM 35.6 °F 24.0 °F 35.6 °F 100% 30.33 in 2.5 mi North 23.0 mph 35.7 mph 0.24 in Snow Light Snow
3:15 AM 33.8 °F 22.2 °F 33.8 °F 100% 30.32 in 2.5 mi North 20.7 mph 28.8 mph 0.08 in Snow Light Snow
3:35 AM 33.8 °F 21.9 °F 33.8 °F 100% 30.32 in 3.0 mi North 21.9 mph 29.9 mph 0.16 in Snow Light Snow
3:55 AM 33.8 °F 21.6 °F 33.8 °F 100% 30.33 in 3.0 mi North 23.0 mph 32.2 mph 0.22 in Snow Light Snow
4:15 AM 33.8 °F 21.9 °F 33.8 °F 100% 30.35 in 2.5 mi North 21.9 mph 28.8 mph 0.08 in Snow Light Snow
4:35 AM 33.8 °F 23.5 °F 33.8 °F 100% 30.37 in 2.5 mi North 16.1 mph 21.9 mph 0.16 in Snow Light Snow
4:55 AM 32.0 °F 20.1 °F 32.0 °F 100% 30.36 in 3.0 mi North 19.6 mph - 0.24 in Snow Light Snow
5:15 AM 30.2 °F 18.1 °F 30.2 °F 100% 30.36 in 4.0 mi North 18.4 mph 26.5 mph 0.06 in Snow Light Snow
5:35 AM 30.2 °F 18.9 °F 30.2 °F 100% 30.37 in 4.0 mi North 16.1 mph 23.0 mph 0.09 in Snow Light Snow
5:55 AM 30.2 °F 17.8 °F 30.2 °F 100% 30.39 in 2.0 mi North 19.6 mph 31.1 mph 0.11 in Snow Light Snow
6:15 AM 30.2 °F 18.9 °F 30.2 °F 100% 30.40 in 1.0 mi North 16.1 mph 29.9 mph 0.01 in Snow Snow
6:35 AM 30.2 °F 18.5 °F 30.2 °F 100% 30.40 in 1.5 mi North 17.3 mph 23.0 mph 0.07 in Snow Light Snow
6:55 AM 30.2 °F 18.1 °F 30.2 °F 100% 30.42 in 1.0 mi North 18.4 mph 23.0 mph 0.11 in Snow Light Snow
7:15 AM 30.2 °F 18.9 °F 30.2 °F 100% 30.41 in 1.0 mi North 16.1 mph 24.2 mph 0.02 in Snow Light Snow
7:35 AM 30.2 °F 18.1 °F 30.2 °F 100% 30.42 in 1.5 mi North 18.4 mph 24.2 mph 0.06 in Snow Light Snow
7:55 AM 30.2 °F 18.5 °F 30.2 °F 100% 30.43 in 5.0 mi North 17.3 mph 24.2 mph 0.07 in Snow Light Snow
8:15 AM 30.2 °F 18.5 °F 30.2 °F 100% 30.44 in 7.0 mi North 17.3 mph 23.0 mph N/A Rain Light Freezing Rain
8:35 AM 30.2 °F 17.8 °F 30.2 °F 100% 30.45 in 10.0 mi North 19.6 mph 25.3 mph 0.01 in Rain Light Freezing Rain
8:55 AM 32.0 °F 22.5 °F 32.0 °F 100% 30.46 in 10.0 mi North 12.7 mph 20.7 mph 0.01 in Rain Rain
9:15 AM 32.0 °F 21.2 °F 30.2 °F 93% 30.45 in 10.0 mi North 16.1 mph - N/A Rain Light Rain
9:35 AM 32.0 °F 21.2 °F 30.2 °F 93% 30.45 in 10.0 mi North 16.1 mph 20.7 mph N/A Rain Light Rain
9:55 AM 32.0 °F 20.8 °F 30.2 °F 93% 30.44 in 10.0 mi North 17.3 mph 24.2 mph N/A Rain Light Rain
10:15 AM 30.2 °F 18.1 °F 30.2 °F 100% 30.44 in 3.0 mi North 18.4 mph 25.3 mph 0.01 in Snow Light Snow
10:35 AM 32.0 °F 19.8 °F 30.2 °F 93% 30.45 in 2.5 mi North 20.7 mph 27.6 mph 0.01 in Snow Light Snow
10:55 AM 32.0 °F 20.5 °F 30.2 °F 93% 30.45 in 7.0 mi North 18.4 mph 28.8 mph 0.01 in   Overcast
11:15 AM 33.8 °F 23.2 °F 30.2 °F 87% 30.46 in 10.0 mi North 17.3 mph 26.5 mph N/A Rain Light Rain
11:35 AM 33.8 °F 24.3 °F 32.0 °F 93% 30.48 in 10.0 mi NNW 13.8 mph - N/A   Overcast
11:55 AM 33.8 °F 24.3 °F 30.2 °F 87% 30.48 in 10.0 mi North 13.8 mph - 0.01 in Rain Light Rain
12:15 PM 33.8 °F 23.9 °F 32.0 °F 93% 30.48 in 10.0 mi North 15.0 mph 21.9 mph N/A Rain Light Rain
12:35 PM 33.8 °F 22.2 °F 32.0 °F 93% 30.47 in 10.0 mi North 20.7 mph 25.3 mph N/A Rain Light Rain
12:55 PM 33.8 °F 23.2 °F 30.2 °F 87% 30.47 in 10.0 mi North 17.3 mph 24.2 mph N/A Rain Light Rain
1:15 PM 35.6 °F 24.0 °F 30.2 °F 81% 30.46 in 10.0 mi North 23.0 mph 29.9 mph N/A   Clear
1:35 PM 35.6 °F 24.8 °F 30.2 °F 81% 30.45 in 10.0 mi North 19.6 mph 29.9 mph N/A   Clear
1:55 PM 37.4 °F 26.6 °F 30.2 °F 75% 30.44 in 10.0 mi North 21.9 mph 28.8 mph N/A   Clear
2:15 PM 37.4 °F 27.2 °F 28.4 °F 70% 30.44 in 10.0 mi North 19.6 mph 31.1 mph N/A   Scattered Clouds
2:35 PM 37.4 °F 25.6 °F 28.4 °F 70% 30.44 in 10.0 mi North 26.5 mph 29.9 mph N/A   Mostly Cloudy
2:55 PM 37.4 °F 27.5 °F 28.4 °F 70% 30.45 in 10.0 mi North 18.4 mph 32.2 mph N/A   Overcast
3:15 PM 35.6 °F 23.4 °F 28.4 °F 75% 30.45 in 10.0 mi North 25.3 mph 32.2 mph N/A   Mostly Cloudy
3:35 PM 35.6 °F 23.7 °F 26.6 °F 70% 30.45 in 10.0 mi North 24.2 mph 29.9 mph N/A   Scattered Clouds
3:55 PM 35.6 °F 25.2 °F 28.4 °F 75% 30.45 in 10.0 mi North 18.4 mph 23.0 mph N/A   Scattered Clouds
4:15 PM 35.6 °F 25.5 °F 28.4 °F 75% 30.44 in 10.0 mi North 17.3 mph 26.5 mph N/A   Clear
4:35 PM 37.4 °F 27.5 °F 28.4 °F 70% 30.44 in 10.0 mi North 18.4 mph 23.0 mph N/A   Clear
4:55 PM 37.4 °F 27.5 °F 28.4 °F 70% 30.44 in 10.0 mi North 18.4 mph 24.2 mph N/A   Scattered Clouds
5:15 PM 37.4 °F 27.8 °F 30.2 °F 75% 30.42 in 10.0 mi North 17.3 mph 26.5 mph N/A   Scattered Clouds
5:35 PM 37.4 °F 28.2 °F 30.2 °F 75% 30.43 in 10.0 mi North 16.1 mph - N/A   Scattered Clouds
5:55 PM 39.2 °F 30.8 °F 30.2 °F 70% 30.42 in 10.0 mi North 15.0 mph 18.4 mph N/A   Clear
6:15 PM 39.2 °F 30.8 °F 30.2 °F 70% 30.42 in 10.0 mi North 15.0 mph 20.7 mph N/A   Clear
6:55 PM 39.2 °F 32.5 °F 30.2 °F 70% 30.41 in 10.0 mi North 10.4 mph 16.1 mph N/A   Scattered Clouds
6:57 PM 39.2 °F 33.6 °F 30.2 °F 70% 30.41 in 10.0 mi North 8.1 mph 11.5 mph N/A   Scattered Clouds
7:15 PM 39.2 °F 33.0 °F 32.0 °F 75% 30.41 in 10.0 mi North 9.2 mph - N/A   Scattered Clouds
7:35 PM 39.2 °F 33.0 °F 32.0 °F 75% 30.40 in 10.0 mi North 9.2 mph - N/A   Scattered Clouds
7:55 PM 37.4 °F 30.3 °F 32.0 °F 81% 30.39 in 10.0 mi North 10.4 mph - N/A   Scattered Clouds
8:15 PM 37.4 °F 30.8 °F 32.0 °F 81% 30.38 in 10.0 mi North 9.2 mph - N/A   Scattered Clouds
8:35 PM 37.4 °F 30.8 °F 30.2 °F 75% 30.39 in 10.0 mi North 9.2 mph - N/A   Mostly Cloudy
8:55 PM 37.4 °F 31.4 °F 30.2 °F 75% 30.39 in 10.0 mi North 8.1 mph - N/A   Overcast
9:15 PM 37.4 °F 30.8 °F 30.2 °F 75% 30.38 in 10.0 mi North 9.2 mph - N/A   Mostly Cloudy
9:35 PM 37.4 °F 30.8 °F 30.2 °F 75% 30.38 in 10.0 mi North 9.2 mph - N/A   Mostly Cloudy
9:55 PM 37.4 °F 30.8 °F 30.2 °F 75% 30.37 in 10.0 mi North 9.2 mph - N/A   Overcast
10:15 PM 37.4 °F 31.4 °F 30.2 °F 75% 30.37 in 10.0 mi North 8.1 mph - N/A   Mostly Cloudy
10:35 PM 37.4 °F 32.1 °F 30.2 °F 75% 30.37 in 10.0 mi North 6.9 mph - N/A   Mostly Cloudy
10:55 PM 37.4 °F 32.1 °F 32.0 °F 81% 30.36 in 10.0 mi North 6.9 mph - N/A   Overcast
11:15 PM 37.4 °F 31.4 °F 32.0 °F 81% 30.36 in 10.0 mi North 8.1 mph - N/A   Overcast
11:35 PM 37.4 °F 32.1 °F 30.2 °F 75% 30.36 in 10.0 mi North 6.9 mph - N/A   Overcast
11:55 PM 37.4 °F 32.1 °F 32.0 °F 81% 30.35 in 10.0 mi North 6.9 mph - N/A   Overcast